"Datum/tijd (MEZT)";"astronomisch [cm]";"verwachting RWS";"waterstand [cm]"
2024-04-29 01:00;;36;
2024-04-29 01:10;;36;
2024-04-29 01:20;;35;
2024-04-29 01:30;;34;
2024-04-29 01:40;;33;
2024-04-29 01:50;;32;
2024-04-29 02:00;;31;
2024-04-29 02:10;;30;
2024-04-29 02:20;;29;
2024-04-29 02:30;;28;
2024-04-29 02:40;;27;
2024-04-29 02:50;;26;
2024-04-29 03:00;;25;
2024-04-29 03:10;;24;
2024-04-29 03:20;;24;
2024-04-29 03:30;;23;
2024-04-29 03:40;;22;
2024-04-29 03:50;;21;
2024-04-29 04:00;;20;
2024-04-29 04:10;;20;
2024-04-29 04:20;;19;
2024-04-29 04:30;;18;
2024-04-29 04:40;;17;
2024-04-29 04:50;;17;
2024-04-29 05:00;;16;
2024-04-29 05:10;;16;
2024-04-29 05:20;;16;
2024-04-29 05:30;;17;
2024-04-29 05:40;;18;
2024-04-29 05:50;;19;
2024-04-29 06:00;;22;
2024-04-29 06:10;;26;
2024-04-29 06:20;;32;
2024-04-29 06:30;;40;
2024-04-29 06:40;;50;
2024-04-29 06:50;;60;
2024-04-29 07:00;;70;
2024-04-29 07:10;;76;
2024-04-29 07:20;;80;
2024-04-29 07:30;;82;
2024-04-29 07:40;;83;
2024-04-29 07:50;;83;
2024-04-29 08:00;;83;
2024-04-29 08:10;;84;
2024-04-29 08:20;;85;
2024-04-29 08:30;;85;
2024-04-29 08:40;;85;
2024-04-29 08:50;;85;
2024-04-29 09:00;;84;
2024-04-29 09:10;;83;
2024-04-29 09:20;;83;
2024-04-29 09:30;;82;
2024-04-29 09:40;;81;
2024-04-29 09:50;;80;
2024-04-29 10:00;;79;
2024-04-29 10:10;;77;
2024-04-29 10:20;;76;
2024-04-29 10:30;;74;
2024-04-29 10:40;;71;
2024-04-29 10:50;;68;
2024-04-29 11:00;;64;
2024-04-29 11:10;;60;
2024-04-29 11:20;;55;
2024-04-29 11:30;;51;
2024-04-29 11:40;;47;
2024-04-29 11:50;;44;
2024-04-29 12:00;;42;
2024-04-29 12:10;;40;
2024-04-29 12:20;;39;
2024-04-29 12:30;;38;
2024-04-29 12:40;;37;
2024-04-29 12:50;;36;
2024-04-29 13:00;;35;
2024-04-29 13:10;;35;
2024-04-29 13:20;;34;
2024-04-29 13:30;;33;
2024-04-29 13:40;;32;
2024-04-29 13:50;;31;
2024-04-29 14:00;;30;
2024-04-29 14:10;;29;
2024-04-29 14:20;;28;
2024-04-29 14:30;;27;
2024-04-29 14:40;;26;
2024-04-29 14:50;;25;
2024-04-29 15:00;;24;
2024-04-29 15:10;;23;
2024-04-29 15:20;;22;
2024-04-29 15:30;;21;
2024-04-29 15:40;;20;
2024-04-29 15:50;;19;
2024-04-29 16:00;;17;
2024-04-29 16:10;;16;
2024-04-29 16:20;;15;
2024-04-29 16:30;;14;
2024-04-29 16:40;;13;
2024-04-29 16:50;;12;
2024-04-29 17:00;;11;
2024-04-29 17:10;;10;
2024-04-29 17:20;;9;
2024-04-29 17:30;;9;
2024-04-29 17:40;;8;
2024-04-29 17:50;;8;
2024-04-29 18:00;;8;
2024-04-29 18:10;;8;
2024-04-29 18:20;;9;
2024-04-29 18:30;;11;
2024-04-29 18:40;;14;
2024-04-29 18:50;;19;
2024-04-29 19:00;;24;
2024-04-29 19:10;;32;
2024-04-29 19:20;;41;
2024-04-29 19:30;;51;
2024-04-29 19:40;;60;
2024-04-29 19:50;;67;
2024-04-29 20:00;;71;
2024-04-29 20:10;;72;
2024-04-29 20:20;;72;
2024-04-29 20:30;;72;
2024-04-29 20:40;;71;
2024-04-29 20:50;;70;
2024-04-29 21:00;;70;
2024-04-29 21:10;;69;
2024-04-29 21:20;;69;
2024-04-29 21:30;;68;
2024-04-29 21:40;;68;
2024-04-29 21:50;;68;
2024-04-29 22:00;;67;
2024-04-29 22:10;;66;
2024-04-29 22:20;;65;
2024-04-29 22:30;;64;
2024-04-29 22:40;;61;
2024-04-29 22:50;;59;
2024-04-29 23:00;;55;
2024-04-29 23:10;;51;
2024-04-29 23:20;;46;
2024-04-29 23:30;;41;
2024-04-29 23:40;;37;
2024-04-29 23:50;;33;
2024-04-30 00:00;;30;
2024-04-30 00:10;;28;
2024-04-30 00:20;;27;
2024-04-30 00:30;;26;
2024-04-30 00:40;;25;
2024-04-30 00:50;;24;
2024-04-30 01:00;;24;
2024-04-30 01:10;;23;
2024-04-30 01:20;;22;
2024-04-30 01:30;;21;
2024-04-30 01:40;;20;
2024-04-30 01:50;;20;
2024-04-30 02:00;;19;
2024-04-30 02:10;;18;
2024-04-30 02:20;;17;
2024-04-30 02:30;;16;
2024-04-30 02:40;;15;
2024-04-30 02:50;;15;
2024-04-30 03:00;;14;
2024-04-30 03:10;;13;
2024-04-30 03:20;;12;
2024-04-30 03:30;;11;
2024-04-30 03:40;;11;
2024-04-30 03:50;;10;
2024-04-30 04:00;;9;
2024-04-30 04:10;;8;
2024-04-30 04:20;;7;
2024-04-30 04:30;;6;
2024-04-30 04:40;;5;
2024-04-30 04:50;;5;
2024-04-30 05:00;;4;
2024-04-30 05:10;;3;
2024-04-30 05:20;;2;
2024-04-30 05:30;;2;
2024-04-30 05:40;;1;
2024-04-30 05:50;;1;
2024-04-30 06:00;;1;
2024-04-30 06:10;;2;
2024-04-30 06:20;;3;
2024-04-30 06:30;;5;
2024-04-30 06:40;;9;
2024-04-30 06:50;;14;
2024-04-30 07:00;;21;
2024-04-30 07:10;;30;
2024-04-30 07:20;;40;
2024-04-30 07:30;;50;
2024-04-30 07:40;;58;
2024-04-30 07:50;;63;
2024-04-30 08:00;;70;
2024-04-30 08:10;;72;
2024-04-30 08:20;;73;
2024-04-30 08:30;;74;
2024-04-30 08:40;;75;
2024-04-30 08:50;;75;
2024-04-30 09:00;;76;
2024-04-30 09:10;;76;
2024-04-30 09:20;;77;
2024-04-30 09:30;;76;
2024-04-30 09:40;;76;
2024-04-30 09:50;;76;
2024-04-30 10:00;;76;
2024-04-30 10:10;;75;
2024-04-30 10:20;;75;
2024-04-30 10:30;;74;
2024-04-30 10:40;;74;
2024-04-30 10:50;;73;
2024-04-30 11:00;;72;
2024-04-30 11:10;;70;
2024-04-30 11:20;;68;
2024-04-30 11:30;;66;
2024-04-30 11:40;;63;
2024-04-30 11:50;;60;
2024-04-30 12:00;;56;
2024-04-30 12:10;;52;
2024-04-30 12:20;;47;
2024-04-30 12:30;;43;
2024-04-30 12:40;;40;
2024-04-30 12:50;;37;
2024-04-30 13:00;;35;
2024-04-30 13:10;;33;
2024-04-30 13:20;;32;
2024-04-30 13:30;;31;
2024-04-30 13:40;;31;
2024-04-30 13:50;;30;
2024-04-30 14:00;;30;
2024-04-30 14:10;;29;
2024-04-30 14:20;;28;
2024-04-30 14:30;;28;
2024-04-30 14:40;;27;
2024-04-30 14:50;;26;
2024-04-30 15:00;;25;
2024-04-30 15:10;;24;
2024-04-30 15:20;;23;
2024-04-30 15:30;;22;
2024-04-30 15:40;;21;
2024-04-30 15:50;;20;
2024-04-30 16:00;;20;
2024-04-30 16:10;;19;
2024-04-30 16:20;;18;
2024-04-30 16:30;;17;
2024-04-30 16:40;;17;
2024-04-30 16:50;;16;
2024-04-30 17:00;;15;
2024-04-30 17:10;;14;
2024-04-30 17:20;;13;
2024-04-30 17:30;;13;
2024-04-30 17:40;;12;
2024-04-30 17:50;;11;
2024-04-30 18:00;;11;
2024-04-30 18:10;;10;
2024-04-30 18:20;;10;
2024-04-30 18:30;;10;
2024-04-30 18:40;;11;
2024-04-30 18:50;;12;
2024-04-30 19:00;;12;
2024-04-30 19:10;;14;
2024-04-30 19:20;;16;
2024-04-30 19:30;;20;
2024-04-30 19:40;;24;
2024-04-30 19:50;;31;
2024-04-30 20:00;;38;
2024-04-30 20:10;;47;
2024-04-30 20:20;;55;
2024-04-30 20:30;;62;
2024-04-30 20:40;;66;
2024-04-30 20:50;;68;
2024-04-30 21:00;;69;
2024-04-30 21:10;;69;
2024-04-30 21:20;;69;
2024-04-30 21:30;;69;
2024-04-30 21:40;;69;
2024-04-30 21:50;;69;
2024-04-30 22:00;;69;
2024-04-30 22:10;;69;
2024-04-30 22:20;;69;
2024-04-30 22:30;;69;
2024-04-30 22:40;;69;
2024-04-30 22:50;;68;
2024-04-30 23:00;;67;
2024-04-30 23:10;;67;
2024-04-30 23:20;;65;
2024-04-30 23:30;;63;
2024-04-30 23:40;;61;
2024-04-30 23:50;;58;
2024-05-01 00:00;;54;
2024-05-01 00:10;;50;
2024-05-01 00:20;;45;
2024-05-01 00:30;;40;
2024-05-01 00:40;;36;
2024-05-01 00:50;;33;
2024-05-01 01:00;;30;
2024-05-01 01:10;;29;
2024-05-01 01:20;;28;
2024-05-01 01:30;;27;
2024-05-01 01:40;;27;
2024-05-01 01:50;;26;
2024-05-01 02:00;;25;
2024-05-01 02:10;;24;
2024-05-01 02:20;;23;
2024-05-01 02:30;;22;
2024-05-01 02:40;;21;
2024-05-01 02:50;;20;
2024-05-01 03:00;;19;
2024-05-01 03:10;;18;
2024-05-01 03:20;;17;
2024-05-01 03:30;;17;
2024-05-01 03:40;;16;
2024-05-01 03:50;;15;
2024-05-01 04:00;;15;
2024-05-01 04:10;;14;
2024-05-01 04:20;;14;
2024-05-01 04:30;;14;
2024-05-01 04:40;;13;
2024-05-01 04:50;;13;
2024-05-01 05:00;;12;
2024-05-01 05:10;;12;
2024-05-01 05:20;;11;
2024-05-01 05:30;;11;
2024-05-01 05:40;;10;
2024-05-01 05:50;;9;
2024-05-01 06:00;;9;
2024-05-01 06:10;;9;
2024-05-01 06:20;;8;
2024-05-01 06:30;;8;
2024-05-01 06:40;;8;
2024-05-01 06:50;;9;
2024-05-01 07:00;;10;
2024-05-01 07:10;;12;
2024-05-01 07:20;;14;
2024-05-01 07:30;;18;
2024-05-01 07:40;;23;
2024-05-01 07:50;;30;
2024-05-01 08:00;;39;
2024-05-01 08:10;;48;
2024-05-01 08:20;;56;
2024-05-01 08:30;;62;
2024-05-01 08:40;;66;
2024-05-01 08:50;;69;
2024-05-01 09:00;;70;
2024-05-01 09:10;;71;
2024-05-01 09:20;;72;
2024-05-01 09:30;;73;
2024-05-01 09:40;;74;
2024-05-01 09:50;;75;
2024-05-01 10:00;;76;
2024-05-01 10:10;;76;
2024-05-01 10:20;;76;
2024-05-01 10:30;;77;
2024-05-01 10:40;;77;
2024-05-01 10:50;;77;
2024-05-01 11:00;;77;
2024-05-01 11:10;;76;
2024-05-01 11:20;;76;
2024-05-01 11:30;;76;
2024-05-01 11:40;;76;
2024-05-01 11:50;;75;
2024-05-01 12:00;;75;
2024-05-01 12:10;;74;
2024-05-01 12:20;;72;
2024-05-01 12:30;;71;
2024-05-01 12:40;;68;
2024-05-01 12:50;;66;
2024-05-01 13:00;;63;
2024-05-01 13:10;;59;
2024-05-01 13:20;;55;
2024-05-01 13:30;;52;
2024-05-01 13:40;;48;
2024-05-01 13:50;;45;
2024-05-01 14:00;;42;
2024-05-01 14:10;;40;
2024-05-01 14:20;;39;
2024-05-01 14:30;;39;
2024-05-01 14:40;;38;
2024-05-01 14:50;;38;
2024-05-01 15:00;;37;
2024-05-01 15:10;;37;
2024-05-01 15:20;;36;
2024-05-01 15:30;;35;
2024-05-01 15:40;;34;
2024-05-01 15:50;;34;
2024-05-01 16:00;;33;
2024-05-01 16:10;;32;
2024-05-01 16:20;;31;
2024-05-01 16:30;;31;
2024-05-01 16:40;;30;
2024-05-01 16:50;;30;
2024-05-01 17:00;;29;
2024-05-01 17:10;;29;
2024-05-01 17:20;;29;
2024-05-01 17:30;;28;
2024-05-01 17:40;;28;
2024-05-01 17:50;;27;
2024-05-01 18:00;;27;
2024-05-01 18:10;;26;
2024-05-01 18:20;;26;
2024-05-01 18:30;;25;
2024-05-01 18:40;;25;
2024-05-01 18:50;;24;
2024-05-01 19:00;;24;
2024-05-01 19:10;;24;
2024-05-01 19:20;;24;
2024-05-01 19:30;;24;
2024-05-01 19:40;;25;
2024-05-01 19:50;;26;
2024-05-01 20:00;;27;
2024-05-01 20:10;;28;
2024-05-01 20:20;;31;
2024-05-01 20:30;;34;
2024-05-01 20:40;;38;
2024-05-01 20:50;;43;
2024-05-01 21:00;;48;
2024-05-01 21:10;;55;
2024-05-01 21:20;;61;
2024-05-01 21:30;;66;
2024-05-01 21:40;;69;
2024-05-01 21:50;;71;
2024-05-01 22:00;;72;
2024-05-01 22:10;;72;
2024-05-01 22:20;;72;
2024-05-01 22:30;;72;
2024-05-01 22:40;;72;
2024-05-01 22:50;;73;
2024-05-01 23:00;;73;
2024-05-01 23:10;;73;
2024-05-01 23:20;;73;
2024-05-01 23:30;;73;
2024-05-01 23:40;;73;
2024-05-01 23:50;;73;
2024-05-02 00:00;;72;
2024-05-02 00:10;;71;
2024-05-02 00:20;;70;
2024-05-02 00:30;;68;
2024-05-02 00:40;;67;
2024-05-02 00:50;;64;
2024-05-02 01:00;;61;
2024-05-02 01:10;;58;
2024-05-02 01:20;;54;
2024-05-02 01:30;;50;
2024-05-02 01:40;;47;
2024-05-02 01:50;;44;
2024-05-02 02:00;;41;
2024-05-02 02:10;;39;
2024-05-02 02:20;;38;
2024-05-02 02:30;;38;
2024-05-02 02:40;;37;
2024-05-02 02:50;;36;
2024-05-02 03:00;;36;
2024-05-02 03:10;;35;
2024-05-02 03:20;;34;
2024-05-02 03:30;;33;
2024-05-02 03:40;;32;
2024-05-02 03:50;;31;
2024-05-02 04:00;;30;
2024-05-02 04:10;;29;
2024-05-02 04:20;;29;
2024-05-02 04:30;;28;
2024-05-02 04:40;;27;
2024-05-02 04:50;;26;
2024-05-02 05:00;;26;
2024-05-02 05:10;;25;
2024-05-02 05:20;;25;
2024-05-02 05:30;;25;
2024-05-02 05:40;;24;
2024-05-02 05:50;;24;
2024-05-02 06:00;;24;
2024-05-02 06:10;;23;
2024-05-02 06:20;;23;
2024-05-02 06:30;;23;
2024-05-02 06:40;;22;
2024-05-02 06:50;;21;
2024-05-02 07:00;;21;
2024-05-02 07:10;;20;
2024-05-02 07:20;;20;
2024-05-02 07:30;;20;
2024-05-02 07:40;;20;
2024-05-02 07:50;;21;
2024-05-02 08:00;;22;
2024-05-02 08:10;;24;
2024-05-02 08:20;;26;
2024-05-02 08:30;;29;
2024-05-02 08:40;;34;
2024-05-02 08:50;;39;
2024-05-02 09:00;;46;
2024-05-02 09:10;;53;
2024-05-02 09:20;;61;
2024-05-02 09:30;;67;
2024-05-02 09:40;;72;
2024-05-02 09:50;;75;
2024-05-02 10:00;;77;
2024-05-02 10:10;;78;
2024-05-02 10:20;;79;
2024-05-02 10:30;;80;
2024-05-02 10:40;;82;
2024-05-02 10:50;;83;
2024-05-02 11:00;;84;
2024-05-02 11:10;;85;
2024-05-02 11:20;;86;
2024-05-02 11:30;;87;
2024-05-02 11:40;;88;
2024-05-02 11:50;;88;
2024-05-02 12:00;;88;
2024-05-02 12:10;;89;
2024-05-02 12:20;;89;
2024-05-02 12:30;;88;
2024-05-02 12:40;;88;
2024-05-02 12:50;;88;
2024-05-02 13:00;;88;
2024-05-02 13:10;;87;
2024-05-02 13:20;;87;
2024-05-02 13:30;;86;
2024-05-02 13:40;;85;
2024-05-02 13:50;;84;
2024-05-02 14:00;;82;
2024-05-02 14:10;;80;
2024-05-02 14:20;;77;
2024-05-02 14:30;;74;
2024-05-02 14:40;;70;
2024-05-02 14:50;;66;
2024-05-02 15:00;;63;
2024-05-02 15:10;;59;
2024-05-02 15:20;;56;
2024-05-02 15:30;;55;
2024-05-02 15:40;;53;
2024-05-02 15:50;;53;
2024-05-02 16:00;;53;
2024-05-02 16:10;;52;
2024-05-02 16:20;;52;
2024-05-02 16:30;;51;
2024-05-02 16:40;;51;
2024-05-02 16:50;;50;
2024-05-02 17:00;;49;
2024-05-02 17:10;;48;
2024-05-02 17:20;;48;
2024-05-02 17:30;;47;
2024-05-02 17:40;;46;
2024-05-02 17:50;;46;
2024-05-02 18:00;;45;
2024-05-02 18:10;;45;
2024-05-02 18:20;;45;
2024-05-02 18:30;;45;
2024-05-02 18:40;;44;
2024-05-02 18:50;;44;
2024-05-02 19:00;;44;
2024-05-02 19:10;;43;
2024-05-02 19:20;;42;
2024-05-02 19:30;;42;
2024-05-02 19:40;;41;
2024-05-02 19:50;;41;
2024-05-02 20:00;;40;
2024-05-02 20:10;;40;
2024-05-02 20:20;;40;
2024-05-02 20:30;;40;
2024-05-02 20:40;;40;
2024-05-02 20:50;;40;
2024-05-02 21:00;;41;
2024-05-02 21:10;;41;
2024-05-02 21:20;;42;
2024-05-02 21:30;;43;
2024-05-02 21:40;;44;
2024-05-02 21:50;;46;
2024-05-02 22:00;;49;
2024-05-02 22:10;;53;
2024-05-02 22:20;;58;
2024-05-02 22:30;;64;
2024-05-02 22:40;;70;
2024-05-02 22:50;;75;
2024-05-02 23:00;;79;
2024-05-02 23:10;;82;
2024-05-02 23:20;;84;
2024-05-02 23:30;;84;
2024-05-02 23:40;;84;
2024-05-02 23:50;;84;
2024-05-03 00:00;;84;
2024-05-03 00:10;;84;
2024-05-03 00:20;;84;
2024-05-03 00:30;;84;
2024-05-03 00:40;;84;
2024-05-03 00:50;;84;
2024-05-03 01:00;;84;
2024-05-03 01:10;;83;
2024-05-03 01:20;;83;
2024-05-03 01:30;;82;
2024-05-03 01:40;;81;
2024-05-03 01:50;;80;
2024-05-03 02:00;;78;
2024-05-03 02:10;;76;
2024-05-03 02:20;;73;
2024-05-03 02:30;;70;
2024-05-03 02:40;;66;
2024-05-03 02:50;;62;
2024-05-03 03:00;;59;
2024-05-03 03:10;;56;
2024-05-03 03:20;;54;
2024-05-03 03:30;;53;
2024-05-03 03:40;;52;
2024-05-03 03:50;;51;
2024-05-03 04:00;;51;
2024-05-03 04:10;;50;
2024-05-03 04:20;;49;
2024-05-03 04:30;;48;
2024-05-03 04:40;;47;
2024-05-03 04:50;;46;
2024-05-03 05:00;;45;
2024-05-03 05:10;;44;
2024-05-03 05:20;;43;
2024-05-03 05:30;;43;
2024-05-03 05:40;;42;
2024-05-03 05:50;;41;
2024-05-03 06:00;;40;
2024-05-03 06:10;;40;
2024-05-03 06:20;;39;
2024-05-03 06:30;;38;
2024-05-03 06:40;;38;
2024-05-03 06:50;;38;
2024-05-03 07:00;;37;
2024-05-03 07:10;;37;
2024-05-03 07:20;;37;
2024-05-03 07:30;;37;
2024-05-03 07:40;;37;
2024-05-03 07:50;;36;
2024-05-03 08:00;;35;
2024-05-03 08:10;;35;
2024-05-03 08:20;;34;
2024-05-03 08:30;;33;
2024-05-03 08:40;;33;
2024-05-03 08:50;;32;
2024-05-03 09:00;;32;
2024-05-03 09:10;;33;
2024-05-03 09:20;;34;
2024-05-03 09:30;;35;
2024-05-03 09:40;;37;
2024-05-03 09:50;;39;
2024-05-03 10:00;;42;
2024-05-03 10:10;;46;
2024-05-03 10:20;;51;
2024-05-03 10:30;;58;
2024-05-03 10:40;;65;
2024-05-03 10:50;;73;
2024-05-03 11:00;;79;
2024-05-03 11:10;;84;
2024-05-03 11:20;;88;
2024-05-03 11:30;;90;
2024-05-03 11:40;;91;
2024-05-03 11:50;;91;
2024-05-03 12:00;;92;
2024-05-03 12:10;;93;
2024-05-03 12:20;;95;
2024-05-03 12:30;;96;
2024-05-03 12:40;;97;
2024-05-03 12:50;;97;
2024-05-03 13:00;;98;
2024-05-03 13:10;;98;
2024-05-03 13:20;;99;
2024-05-03 13:30;;99;
2024-05-03 13:40;;99;
2024-05-03 13:50;;99;
2024-05-03 14:00;;99;
2024-05-03 14:10;;99;
2024-05-03 14:20;;98;
2024-05-03 14:30;;98;
2024-05-03 14:40;;98;
2024-05-03 14:50;;98;
2024-05-03 15:00;;97;
2024-05-03 15:10;;96;
2024-05-03 15:20;;94;
2024-05-03 15:30;;92;
2024-05-03 15:40;;90;
2024-05-03 15:50;;87;
2024-05-03 16:00;;84;
2024-05-03 16:10;;80;
2024-05-03 16:20;;76;
2024-05-03 16:30;;73;
2024-05-03 16:40;;70;
2024-05-03 16:50;;67;
2024-05-03 17:00;;66;
2024-05-03 17:10;;65;
2024-05-03 17:20;;64;
2024-05-03 17:30;;64;
2024-05-03 17:40;;63;
2024-05-03 17:50;;63;
2024-05-03 18:00;;62;
2024-05-03 18:10;;61;
2024-05-03 18:20;;60;
2024-05-03 18:30;;60;
2024-05-03 18:40;;59;
2024-05-03 18:50;;58;
2024-05-03 19:00;;57;
2024-05-03 19:10;;56;
2024-05-03 19:20;;56;
2024-05-03 19:30;;55;
2024-05-03 19:40;;54;
2024-05-03 19:50;;54;
2024-05-03 20:00;;53;
2024-05-03 20:10;;52;
2024-05-03 20:20;;51;
2024-05-03 20:30;;51;
2024-05-03 20:40;;50;
2024-05-03 20:50;;49;
2024-05-03 21:00;;48;
2024-05-03 21:10;;48;
2024-05-03 21:20;;47;
2024-05-03 21:30;;46;
2024-05-03 21:40;;46;
2024-05-03 21:50;;45;
2024-05-03 22:00;;45;
2024-05-03 22:10;;44;
2024-05-03 22:20;;44;
2024-05-03 22:30;;44;
2024-05-03 22:40;;44;
2024-05-03 22:50;;45;
2024-05-03 23:00;;46;
2024-05-03 23:10;;47;
2024-05-03 23:20;;49;
2024-05-03 23:30;;51;
2024-05-03 23:40;;54;
2024-05-03 23:50;;58;
2024-05-04 00:00;;62;
2024-05-04 00:10;;68;
2024-05-04 00:20;;73;
2024-05-04 00:30;;79;
2024-05-04 00:40;;83;
2024-05-04 00:50;;87;
2024-05-04 01:00;;88;
2024-05-04 01:10;;88;
2024-05-04 01:20;;87;
2024-05-04 01:30;;86;
2024-05-04 01:40;;85;
2024-05-04 01:50;;84;
2024-05-04 02:00;;84;
2024-05-04 02:10;;83;
2024-05-04 02:20;;83;
2024-05-04 02:30;;83;
2024-05-04 02:40;;82;
2024-05-04 02:50;;81;
2024-05-04 03:00;;79;
2024-05-04 03:10;;77;
2024-05-04 03:20;;74;
2024-05-04 03:30;;70;
2024-05-04 03:40;;66;
2024-05-04 03:50;;62;
2024-05-04 04:00;;58;
2024-05-04 04:10;;55;
2024-05-04 04:20;;53;
2024-05-04 04:30;;52;
2024-05-04 04:40;;51;
2024-05-04 04:50;;50;
2024-05-04 05:00;;50;
2024-05-04 05:10;;49;
2024-05-04 05:20;;48;
2024-05-04 05:30;;47;
2024-05-04 05:40;;45;
2024-05-04 05:50;;44;
2024-05-04 06:00;;43;
2024-05-04 06:10;;42;
2024-05-04 06:20;;40;
2024-05-04 06:30;;39;
2024-05-04 06:40;;38;
2024-05-04 06:50;;37;
2024-05-04 07:00;;36;
2024-05-04 07:10;;35;
2024-05-04 07:20;;34;
2024-05-04 07:30;;34;
2024-05-04 07:40;;33;
2024-05-04 07:50;;33;
2024-05-04 08:00;;32;
2024-05-04 08:10;;32;
2024-05-04 08:20;;31;
2024-05-04 08:30;;31;
2024-05-04 08:40;;30;
2024-05-04 08:50;;29;
2024-05-04 09:00;;29;
2024-05-04 09:10;;28;
2024-05-04 09:20;;27;
2024-05-04 09:30;;25;
2024-05-04 09:40;;24;
2024-05-04 09:50;;23;
2024-05-04 10:00;;23;
2024-05-04 10:10;;22;
2024-05-04 10:20;;22;
2024-05-04 10:30;;21;
2024-05-04 10:40;;21;
2024-05-04 10:50;;22;
2024-05-04 11:00;;22;
2024-05-04 11:10;;24;
2024-05-04 11:20;;25;
2024-05-04 11:30;;28;
2024-05-04 11:40;;31;
2024-05-04 11:50;;36;
2024-05-04 12:00;;43;
2024-05-04 12:10;;51;
2024-05-04 12:20;;60;
2024-05-04 12:30;;69;
2024-05-04 12:40;;76;
2024-05-04 12:50;;82;
2024-05-04 13:00;;85;
2024-05-04 13:10;;87;
2024-05-04 13:20;;87;
2024-05-04 13:30;;88;
2024-05-04 13:40;;88;
2024-05-04 13:50;;89;
2024-05-04 14:00;;89;
2024-05-04 14:10;;89;
2024-05-04 14:20;;90;
2024-05-04 14:30;;90;
2024-05-04 14:40;;90;
2024-05-04 14:50;;90;
2024-05-04 15:00;;90;
2024-05-04 15:10;;90;
2024-05-04 15:20;;90;
2024-05-04 15:30;;90;
2024-05-04 15:40;;90;
2024-05-04 15:50;;89;
2024-05-04 16:00;;88;
2024-05-04 16:10;;86;
2024-05-04 16:20;;85;
2024-05-04 16:30;;83;
2024-05-04 16:40;;80;
2024-05-04 16:50;;78;
2024-05-04 17:00;;74;
2024-05-04 17:10;;71;
2024-05-04 17:20;;67;
2024-05-04 17:30;;63;
2024-05-04 17:40;;60;
2024-05-04 17:50;;57;
2024-05-04 18:00;;55;
2024-05-04 18:10;;53;
2024-05-04 18:20;;52;
2024-05-04 18:30;;51;
2024-05-04 18:40;;51;
2024-05-04 18:50;;51;
2024-05-04 19:00;;50;
2024-05-04 19:10;;50;
2024-05-04 19:20;;49;
2024-05-04 19:30;;49;
2024-05-04 19:40;;48;
2024-05-04 19:50;;47;
2024-05-04 20:00;;47;
2024-05-04 20:10;;46;
2024-05-04 20:20;;45;
2024-05-04 20:30;;44;
2024-05-04 20:40;;44;
2024-05-04 20:50;;43;
2024-05-04 21:00;;42;
2024-05-04 21:10;;42;
2024-05-04 21:20;;41;
2024-05-04 21:30;;40;
2024-05-04 21:40;;39;
2024-05-04 21:50;;38;
2024-05-04 22:00;;38;
2024-05-04 22:10;;37;
2024-05-04 22:20;;36;
2024-05-04 22:30;;35;
2024-05-04 22:40;;34;
2024-05-04 22:50;;33;
2024-05-04 23:00;;32;
2024-05-04 23:10;;32;
2024-05-04 23:20;;31;
2024-05-04 23:30;;31;
2024-05-04 23:40;;31;
2024-05-04 23:50;;31;
2024-05-05 00:00;;32;
2024-05-05 00:10;;32;
2024-05-05 00:20;;33;
2024-05-05 00:30;;35;
2024-05-05 00:40;;37;
2024-05-05 00:50;;41;
2024-05-05 01:00;;46;
2024-05-05 01:10;;53;
2024-05-05 01:20;;61;
2024-05-05 01:30;;70;
2024-05-05 01:40;;78;
2024-05-05 01:50;;84;
2024-05-05 02:00;;88;
2024-05-05 02:10;;89;
2024-05-05 02:20;;88;
2024-05-05 02:30;;86;
2024-05-05 02:40;;85;
2024-05-05 02:50;;84;
2024-05-05 03:00;;83;
2024-05-05 03:10;;83;
2024-05-05 03:20;;83;
2024-05-05 03:30;;83;
2024-05-05 03:40;;83;
2024-05-05 03:50;;82;
2024-05-05 04:00;;82;
2024-05-05 04:10;;80;
2024-05-05 04:20;;78;
2024-05-05 04:30;;76;
2024-05-05 04:40;;72;
2024-05-05 04:50;;68;
2024-05-05 05:00;;64;
2024-05-05 05:10;;59;
2024-05-05 05:20;;55;
2024-05-05 05:30;;51;
2024-05-05 05:40;;48;
2024-05-05 05:50;;46;
2024-05-05 06:00;;45;
2024-05-05 06:10;;44;
2024-05-05 06:20;;43;
2024-05-05 06:30;;43;
2024-05-05 06:40;;42;
2024-05-05 06:50;;41;
2024-05-05 07:00;;39;
2024-05-05 07:10;;38;
2024-05-05 07:20;;37;
2024-05-05 07:30;;36;
2024-05-05 07:40;;35;
2024-05-05 07:50;;34;
2024-05-05 08:00;;34;
2024-05-05 08:10;;33;
2024-05-05 08:20;;32;
2024-05-05 08:30;;32;
2024-05-05 08:40;;31;
2024-05-05 08:50;;31;
2024-05-05 09:00;;30;
2024-05-05 09:10;;30;
2024-05-05 09:20;;30;
2024-05-05 09:30;;30;
2024-05-05 09:40;;29;
2024-05-05 09:50;;29;
2024-05-05 10:00;;28;
2024-05-05 10:10;;27;
2024-05-05 10:20;;26;
2024-05-05 10:30;;25;
2024-05-05 10:40;;24;
2024-05-05 10:50;;23;
2024-05-05 11:00;;22;
2024-05-05 11:10;;21;
2024-05-05 11:20;;20;
2024-05-05 11:30;;20;
2024-05-05 11:40;;20;
2024-05-05 11:50;;20;
2024-05-05 12:00;;20;
2024-05-05 12:10;;21;
2024-05-05 12:20;;22;
2024-05-05 12:30;;23;
2024-05-05 12:40;;25;
2024-05-05 12:50;;29;
2024-05-05 13:00;;34;
2024-05-05 13:10;;42;
2024-05-05 13:20;;52;
2024-05-05 13:30;;63;
2024-05-05 13:40;;74;
2024-05-05 13:50;;82;
2024-05-05 14:00;;88;
2024-05-05 14:10;;91;
2024-05-05 14:20;;92;
2024-05-05 14:30;;93;
2024-05-05 14:40;;93;
2024-05-05 14:50;;94;
2024-05-05 15:00;;94;
2024-05-05 15:10;;95;
2024-05-05 15:20;;95;
2024-05-05 15:30;;95;
2024-05-05 15:40;;95;
2024-05-05 15:50;;95;
2024-05-05 16:00;;94;
2024-05-05 16:10;;94;
2024-05-05 16:20;;94;
2024-05-05 16:30;;94;
2024-05-05 16:40;;94;
2024-05-05 16:50;;93;
2024-05-05 17:00;;92;
2024-05-05 17:10;;91;
2024-05-05 17:20;;89;
2024-05-05 17:30;;87;
2024-05-05 17:40;;85;
2024-05-05 17:50;;82;
2024-05-05 18:00;;78;
2024-05-05 18:10;;74;
2024-05-05 18:20;;70;
2024-05-05 18:30;;66;
2024-05-05 18:40;;62;
2024-05-05 18:50;;58;
2024-05-05 19:00;;55;
2024-05-05 19:10;;54;
2024-05-05 19:20;;53;
2024-05-05 19:30;;52;
2024-05-05 19:40;;52;
2024-05-05 19:50;;52;
2024-05-05 20:00;;52;
2024-05-05 20:10;;52;
2024-05-05 20:20;;52;
2024-05-05 20:30;;51;
2024-05-05 20:40;;51;
2024-05-05 20:50;;50;
2024-05-05 21:00;;50;
2024-05-05 21:10;;49;
2024-05-05 21:20;;49;
2024-05-05 21:30;;48;
2024-05-05 21:40;;48;
2024-05-05 21:50;;47;
2024-05-05 22:00;;47;
2024-05-05 22:10;;46;
2024-05-05 22:20;;46;
2024-05-05 22:30;;45;
2024-05-05 22:40;;44;
2024-05-05 22:50;;43;
2024-05-05 23:00;;42;
2024-05-05 23:10;;41;
2024-05-05 23:20;;41;
2024-05-05 23:30;;40;
2024-05-05 23:40;;39;
2024-05-05 23:50;;38;
2024-05-06 00:00;;38;
2024-05-06 00:10;;37;
2024-05-06 00:20;;37;
2024-05-06 00:30;;37;
2024-05-06 00:40;;36;
2024-05-06 00:50;;36;
2024-05-06 01:00;;37;
2024-05-06 01:10;;37;
2024-05-06 01:20;;38;
2024-05-06 01:30;;40;
2024-05-06 01:40;;42;
2024-05-06 01:50;;46;
2024-05-06 02:00;;51;
2024-05-06 02:10;;59;
2024-05-06 02:20;;68;
2024-05-06 02:30;;78;
2024-05-06 02:40;;87;
2024-05-06 02:50;;93;
2024-05-06 03:00;;97;
2024-05-06 03:10;;98;
2024-05-06 03:20;;98;
2024-05-06 03:30;;96;
2024-05-06 03:40;;94;
2024-05-06 03:50;;93;
2024-05-06 04:00;;93;
2024-05-06 04:10;;92;
2024-05-06 04:20;;91;
2024-05-06 04:30;;91;
2024-05-06 04:40;;90;
2024-05-06 04:50;;90;
2024-05-06 05:00;;89;
2024-05-06 05:10;;88;
2024-05-06 05:20;;86;
2024-05-06 05:30;;83;
2024-05-06 05:40;;79;
2024-05-06 05:50;;75;
2024-05-06 06:00;;69;
2024-05-06 06:10;;64;
2024-05-06 06:20;;59;